Regional Weather Roundup
Issued by NWS

Home | Current Version | Previous Version | Text Only | Print | Product List | Glossary On
Versions: 1 2 3 4 5 6 7 8 9 10 11 12 13 14 15 16 17 18 19 20 21 22 23 24 25 26 27 28 29 30 31 32 33 34 35 36 37 38 39 40 41 42 43 44 45 46 47 48 49 50
100
ASUS43 KDTX 262210
RWRMI
MICHIGAN HOURLY REGIONAL WEATHER ROUNDUP
NATIONAL WEATHER SERVICE DETROIT/PONTIAC MI
600 PM EDT THU MAY 26 2016

NOTE: "FAIR" INDICATES FEW OR NO CLOUDS BELOW 12,000 FEET WITH NO
SIGNIFICANT WEATHER AND/OR OBSTRUCTION TO VISIBILITY.

MIZ047>049-052>055-059>063-066>070-074>076-081>083-262300-
SOUTHEAST LOWER MICHIGAN

CITY           SKY/WX    TMP DP  RH WIND       PRES   REMARKS
ADRIAN         MOSUNNY   84  62  47 SW10      29.90F
ALMA           MOSUNNY   80  67  64 SW3       29.86F
ANN ARBOR      CLOUDY    83  64  52 SW7       29.88F
BAD AXE        MOSUNNY   84  63  48 SW7       29.87S
CARO           MOSUNNY   84  64  51 SW9       29.86F
DETROIT CITY   MOSUNNY   84  62  47 SW10      29.88F
DETROIT        CLOUDY    85  62  46 S13       29.89F
FLINT          PTSUNNY   86  62  44 S10       29.87F
GROSSE ILE     PTSUNNY   79  66  65 S7        29.88F
HILLSDALE      CLOUDY    82  57  41 S8        29.92R
HOWELL         SUNNY     83  62  48 SW8       29.88F

CITY           SKY/WX    TMP DP  RH WIND       PRES   REMARKS
JACKSON        CLOUDY    83  60  45 SW9       29.89F
LAMBERTVILLE   PTSUNNY   85  64  48 SW7       29.91S
LANSING        MOSUNNY   81  63  54 SW14      29.88F
LAPEER         FAIR      85  57  37 SW8       29.88S
MASON          CLOUDY    82  63  51 SW6       29.88F
MONROE         PTSUNNY   84  66  54 SW9       29.88F
MT. CLEMENS    PTSUNNY   80  67  63 S10       29.88F
PONTIAC        CLOUDY    83  62  49 S12       29.88F
PORT HOPE        N/A     64  61  90 SE6       29.86F
PORT HURON     CLOUDY    81  64  57 S8G18     29.89F
TRI CITIES     MOSUNNY   86  64  47 SW12      29.86F
MIDLAND        FAIR      83  65  53 W8G17     29.84F
TROY           CLOUDY    86  59  40 SW12G17   29.90F
SAGINAW HB     MOSUNNY   84  61  45 SW13G20   29.85F
$$
MIZ043>046-050>051-056>058-064>065-071>073-077>080-262300-
SOUTHWEST LOWER MICHIGAN

CITY           SKY/WX    TMP DP  RH WIND       PRES   REMARKS
BATTLE CREEK   MOSUNNY   82  60  47 SW13      29.89F
BENTON HARBOR  SUNNY     78  64  61 W12       29.87F
BIG RAPIDS     PTSUNNY   78  66  66 SW14G20   29.86F
COLDWATER      SUNNY     82  56  40 SW13      29.90S
FREMONT        FAIR      79  62  55 SW12      29.85F
HOLLAND        MOSUNNY   79  68  69 W9        29.88F
GRAND RAPIDS   LGT RAIN  83  65  54 SW9       29.86F
IONIA          FAIR      83  62  49 SW14      29.85F
KALAMAZOO      CLOUDY    84  58  40 SW9       29.88F
LUDINGTON      SUNNY     76  64  66 SW13G18   29.84F
MARSHALL       MOSUNNY   82  57  42 SW10G20   29.89R
MOUNT PLEASANT CLOUDY    82  64  55 W14       29.85S
MUSKEGON       MOSUNNY   78  64  61 SW10      29.86F
SOUTH HAVEN    SUNNY     76  66  72 NW3       29.87F
$$
MIZ016>042-262300-
NORTHERN LOWER MICHIGAN

CITY           SKY/WX    TMP DP  RH WIND       PRES   REMARKS
ALPENA         CLOUDY    71  66  84 CALM      29.83R
BEAVER ISLAND  CLOUDY    59  57  91 SW12      29.84R FOG
BELLAIRE       MOSUNNY   80  63  57 W7        29.80S
CADILLAC       CLOUDY    80  62  54 SW15      29.85F
CHARLEVOIX     PTSUNNY   67  63  86 W9        29.84S
FRANKFORT      SUNNY     72  65  78 SW13G21   29.83S
GAYLORD        LGT RAIN  76  69  79 SW6       29.83F
GRAYLING       CLOUDY    81  62  52 S8G23     29.84S
HARBOR SPRINGS MOSUNNY   67  61  83 SW7       29.82S
HOUGHTON LAKE  CLOUDY    78  66  66 SW10      29.86F
MANISTEE       SUNNY     79  63  57 SW17      29.84F
OSCODA         CLOUDY    79  64  59 W21G29    29.87R
PELLSTON       MOSUNNY   75  63  66 SW10      29.81F
ROGERS CITY    HVY RAIN  70  63  77 W5        29.85R
TRAVERSE CITY  PTSUNNY   84  57  39 W13G23    29.79R
$$
MIZ007>008-015-262300-
EASTERN UPPER MICHIGAN

CITY           SKY/WX    TMP DP  RH WIND       PRES   REMARKS
KINROSS          N/A     72  66  83 S8        29.81S
MACKINAC ISLAN CLOUDY    66  60  80 S9G17     29.80F
NEWBERRY       CLOUDY    66  63  89 SW12      29.81R
S. S. MARIE    LGT RAIN  73  64  73 VRB3      29.80S
MUNISING         N/A     52  51  97 CALM      29.81F
$$
MIZ004>006-011>014-085-262300-
CENTRAL UPPER MICHIGAN

CITY           SKY/WX    TMP DP  RH WIND       PRES   REMARKS
MANISTIQUE     RAIN      56  55  97 N3        29.82S
ESCANABA       MOSUNNY   66  61  82 NE5       29.82S
MENOMINEE      PTSUNNY   72  64  78 N7        29.82S
SAWYER-GWINN   CLOUDY    61  59  94 CALM      29.81F
$$
MIZ001>003-009>011-084-262300-
WESTERN UPPER MICHIGAN

CITY           SKY/WX    TMP DP  RH WIND       PRES   REMARKS
IRON MOUNTAIN  MOSUNNY   71  60  68 VRB5      29.81F
HOUGHTON       MOSUNNY   65  60  84 VRB3      29.79F
COPPER HARBOR    N/A     48  47  96 NE5       29.80R
IRONWOOD       SUNNY     72  64  78 NW5       29.76F
$$

ABBREVIATIONS USED IN REMARKS
   TC - TEMPERATURE IN CELSIUS
  WCI - WIND CHILL INDEX
   HX - HEAT INDEX
  VSB - VISIBILITY





USA.gov is the U.S. government's official web portal to all federal, state and local government web resources and services.